Simultaneous Nadir Overpasses (SNOs) Predictions

Prediction of SNOs between AQUA and GOES-15 Satellite Orbit:

Table of predicted SNOs for the next 14.0 days since TLE Epoch: 8/24/2018
Index Date Time (AQUA) AQUA Lat,Lon GOES-15 Lat,Lon Distance(km) Time Diff (sec)
1 08/24/2018 22:35:49 0.34,-135.07 0.38,-134.80 30.14 80
2 08/26/2018 22:23:35 0.92,-132.10 0.38,-134.71 296.85 80
3 08/27/2018 10:44:51 0.15,-137.26 -0.39,-134.67 294.64 80
4 08/29/2018 10:32:37 -0.43,-134.29 -0.39,-134.57 31.74 80
5 08/31/2018 10:20:24 -1.08,-131.33 -0.39,-134.47 357.35 80
6 08/31/2018 22:41:46 -0.05,-136.52 0.40,-134.46 233.92 80
7 09/02/2018 22:29:34 0.60,-133.56 0.40,-134.35 90.67 80
8 09/04/2018 22:17:20 1.18,-130.59 0.41,-134.23 414.22 80
9 09/05/2018 10:38:34 -0.07,-135.74 -0.41,-134.18 177.21 80




NCC Satellite Simultaneous Nadir Overpasses (SNOs) Prediction Service
